MLE0438 SBMO-SBSP

Flight info

Callsign MLE0438
Flight time N/A
Altitude 32000
Route ILPAP1B OBLAX DCT ARNOX UZ30 ENTIT ORESU1B
Aircraft A319/M-VGDW/C

Departure

Time 2026-04-17 18:11
Airport Zumbi dos Palmares International Airport (SBMO)

Arrival

Time N/A
Airport Congonhas–Deputado Freitas Nobre Airport (SBSP)
Time Latitude Longitude Altitude Speed Heading
2026-04-17 17:12 -9.51411 -35.79163 386 ft 0 kts 191°
2026-04-17 17:49 -9.51421 -35.79165 386 ft 4 kts 10°
2026-04-17 17:49 -9.51409 -35.79163 386 ft 1 kts 11°
2026-04-17 17:54 -9.51408 -35.79163 386 ft 0 kts 11°
2026-04-17 17:54 -9.51402 -35.79162 386 ft 1 kts 11°
2026-04-17 17:54 -9.51389 -35.79159 386 ft 2 kts 11°
2026-04-17 17:54 -9.51369 -35.79155 386 ft 3 kts 11°
2026-04-17 17:55 -9.51350 -35.79140 386 ft 4 kts 53°
2026-04-17 17:55 -9.51346 -35.79109 385 ft 5 kts 95°
2026-04-17 17:55 -9.51351 -35.79067 385 ft 7 kts 94°
2026-04-17 17:55 -9.51328 -35.79022 384 ft 8 kts 42°
2026-04-17 17:56 -9.51287 -35.78979 384 ft 9 kts 64°
2026-04-17 17:56 -9.51289 -35.78912 383 ft 10 kts 97°
2026-04-17 17:56 -9.51300 -35.78833 383 ft 12 kts 100°
2026-04-17 17:56 -9.51321 -35.78754 382 ft 7 kts 96°
2026-04-17 17:57 -9.51313 -35.78753 382 ft 0 kts 348°
2026-04-17 17:57 -9.51310 -35.78755 382 ft 1 kts 340°
2026-04-17 17:57 -9.51302 -35.78760 382 ft 3 kts 322°
2026-04-17 17:57 -9.51298 -35.78781 382 ft 3 kts 269°
2026-04-17 17:58 -9.51298 -35.78806 382 ft 4 kts 269°
2026-04-17 17:58 -9.51298 -35.78831 383 ft 4 kts 269°
2026-04-17 17:58 -9.51299 -35.78857 383 ft 4 kts 269°
2026-04-17 17:58 -9.51299 -35.78876 383 ft 0 kts 269°
2026-04-17 18:01 -9.51299 -35.78879 383 ft 1 kts 269°
2026-04-17 18:01 -9.51299 -35.78883 383 ft 1 kts 270°
2026-04-17 18:01 -9.51299 -35.78890 383 ft 1 kts 271°
2026-04-17 18:02 -9.51297 -35.78900 383 ft 2 kts 277°
2026-04-17 18:02 -9.51288 -35.78940 384 ft 11 kts 282°
2026-04-17 18:02 -9.51273 -35.79018 384 ft 12 kts 282°
2026-04-17 18:02 -9.51256 -35.79099 385 ft 11 kts 281°
2026-04-17 18:03 -9.51242 -35.79176 386 ft 11 kts 280°
2026-04-17 18:03 -9.51228 -35.79252 387 ft 11 kts 281°
2026-04-17 18:03 -9.51213 -35.79326 388 ft 11 kts 281°
2026-04-17 18:03 -9.51201 -35.79398 388 ft 10 kts 279°
2026-04-17 18:04 -9.51188 -35.79469 389 ft 10 kts 282°
2026-04-17 18:04 -9.51173 -35.79538 390 ft 10 kts 282°
2026-04-17 18:04 -9.51159 -35.79606 391 ft 10 kts 281°
2026-04-17 18:04 -9.51147 -35.79673 391 ft 9 kts 281°
2026-04-17 18:05 -9.51137 -35.79737 392 ft 9 kts 275°
2026-04-17 18:05 -9.51128 -35.79799 393 ft 9 kts 279°
2026-04-17 18:05 -9.51119 -35.79860 394 ft 9 kts 279°
2026-04-17 18:05 -9.51108 -35.79919 393 ft 8 kts 280°
2026-04-17 18:06 -9.51096 -35.79977 395 ft 8 kts 282°
2026-04-17 18:06 -9.51081 -35.80033 395 ft 8 kts 284°
2026-04-17 18:06 -9.51072 -35.80087 393 ft 8 kts 278°
2026-04-17 18:06 -9.51064 -35.80141 396 ft 8 kts 280°
2026-04-17 18:07 -9.51054 -35.80194 397 ft 8 kts 281°
2026-04-17 18:07 -9.51044 -35.80244 395 ft 8 kts 278°
2026-04-17 18:07 -9.51035 -35.80297 398 ft 8 kts 282°
2026-04-17 18:07 -9.51006 -35.80337 398 ft 7 kts 336°
2026-04-17 18:08 -9.50978 -35.80338 395 ft 0 kts
2026-04-17 18:08 -9.50977 -35.80338 396 ft 0 kts
2026-04-17 18:08 -9.50975 -35.80338 398 ft 0 kts
2026-04-17 18:08 -9.50971 -35.80338 398 ft 1 kts
2026-04-17 18:09 -9.50960 -35.80336 398 ft 2 kts
2026-04-17 18:09 -9.50942 -35.80334 396 ft 3 kts
2026-04-17 18:09 -9.50919 -35.80330 398 ft 4 kts 12°
2026-04-17 18:09 -9.50894 -35.80319 398 ft 4 kts 33°
2026-04-17 18:10 -9.50879 -35.80292 398 ft 5 kts 76°
2026-04-17 18:10 -9.50875 -35.80255 398 ft 6 kts 93°
2026-04-17 18:10 -9.50881 -35.80205 398 ft 13 kts 98°
2026-04-17 18:10 -9.50957 -35.79825 394 ft 100 kts 101°
2026-04-17 18:11 -9.51152 -35.78864 389 ft 173 kts 103°
2026-04-17 18:11 -9.51469 -35.77715 1242 ft 162 kts 108°
2026-04-17 18:11 -9.51797 -35.76660 2187 ft 150 kts 109°
2026-04-17 18:11 -9.52304 -35.75740 2724 ft 159 kts 139°
2026-04-17 18:12 -9.53386 -35.75296 3030 ft 184 kts 176°
2026-04-17 18:12 -9.54661 -35.75735 3332 ft 214 kts 217°
2026-04-17 18:12 -9.55464 -35.77104 3754 ft 243 kts 249°
2026-04-17 18:12 -9.55925 -35.78836 4282 ft 267 kts 255°
2026-04-17 18:13 -9.56302 -35.80720 5055 ft 277 kts 257°
2026-04-17 18:13 -9.56657 -35.82656 5931 ft 282 kts 257°
2026-04-17 18:13 -9.57025 -35.84627 6762 ft 286 kts 258°
2026-04-17 18:13 -9.57413 -35.86617 7628 ft 290 kts 258°
2026-04-17 18:14 -9.57819 -35.88625 8490 ft 293 kts 258°
2026-04-17 18:14 -9.58098 -35.89965 9063 ft 295 kts 257°
2026-04-17 18:14 -9.58534 -35.92009 9870 ft 299 kts 257°
2026-04-17 18:14 -9.59144 -35.94847 10341 ft 326 kts 258°
2026-04-17 18:15 -9.59644 -35.97160 10714 ft 342 kts 258°
2026-04-17 18:15 -9.60157 -35.99533 11339 ft 348 kts 258°
2026-04-17 18:15 -9.60678 -36.01943 12038 ft 352 kts 258°
2026-04-17 18:15 -9.61203 -36.04375 12733 ft 356 kts 258°
2026-04-17 18:16 -9.61735 -36.06837 13413 ft 359 kts 259°
2026-04-17 18:16 -9.62096 -36.08512 13835 ft 361 kts 259°
2026-04-17 18:16 -9.62631 -36.11014 14430 ft 364 kts 258°
2026-04-17 18:16 -9.63162 -36.13495 14994 ft 367 kts 259°
2026-04-17 18:17 -9.63704 -36.16031 15567 ft 370 kts 259°
2026-04-17 18:17 -9.65456 -36.20981 16698 ft 379 kts 244°
2026-04-17 18:17 -9.66638 -36.23383 17278 ft 381 kts 244°
2026-04-17 18:18 -9.67819 -36.25804 17847 ft 385 kts 245°
2026-04-17 18:18 -9.69001 -36.28247 18342 ft 388 kts 245°
2026-04-17 18:18 -9.70190 -36.30712 18829 ft 391 kts 244°
2026-04-17 18:18 -9.71393 -36.33199 19307 ft 394 kts 245°
2026-04-17 18:19 -9.72606 -36.35704 19788 ft 397 kts 245°
2026-04-17 18:19 -9.73829 -36.38230 20241 ft 401 kts 245°
2026-04-17 18:19 -9.75063 -36.40778 20761 ft 404 kts 245°
2026-04-17 18:19 -9.76303 -36.43339 21240 ft 407 kts 245°
2026-04-17 18:20 -9.77556 -36.45921 21707 ft 410 kts 246°
2026-04-17 18:20 -9.78822 -36.48526 22163 ft 413 kts 245°
2026-04-17 18:20 -9.80093 -36.51145 22642 ft 416 kts 246°
2026-04-17 18:20 -9.81377 -36.53792 23074 ft 419 kts 246°
2026-04-17 18:21 -9.82664 -36.56457 23485 ft 423 kts 245°
2026-04-17 18:21 -9.83959 -36.59143 23854 ft 425 kts 245°
2026-04-17 18:21 -9.85261 -36.61844 24229 ft 427 kts 245°
2026-04-17 18:21 -9.86571 -36.64553 24599 ft 429 kts 245°
2026-04-17 18:22 -9.87891 -36.67275 24968 ft 431 kts 245°
2026-04-17 18:22 -9.89217 -36.70009 25350 ft 433 kts 246°
2026-04-17 18:22 -9.90590 -36.72738 25722 ft 436 kts 242°
2026-04-17 18:22 -9.92337 -36.75266 26072 ft 440 kts 232°
2026-04-17 18:23 -9.92547 -36.75518 26111 ft 441 kts 230°
2026-04-17 18:28 -9.92973 -36.76004 26252 ft 437 kts 231°
2026-04-17 18:28 -9.95040 -36.78192 27181 ft 424 kts 224°
2026-04-17 18:28 -9.97224 -36.80228 27532 ft 430 kts 223°
2026-04-17 18:28 -9.99530 -36.82211 27661 ft 439 kts 221°
2026-04-17 18:29 -10.01919 -36.84188 27785 ft 447 kts 220°
2026-04-17 18:29 -10.04350 -36.86195 27956 ft 453 kts 221°
2026-04-17 18:29 -10.06782 -36.88242 28242 ft 456 kts 221°
2026-04-17 18:29 -10.09211 -36.90332 28566 ft 458 kts 222°
2026-04-17 18:30 -10.11629 -36.92449 28875 ft 460 kts 222°
2026-04-17 18:30 -10.14044 -36.94586 29194 ft 462 kts 223°
2026-04-17 18:30 -10.16471 -36.96741 29523 ft 464 kts 223°
2026-04-17 18:30 -10.18908 -36.98902 29835 ft 466 kts 222°
2026-04-17 18:31 -10.21355 -37.01065 30099 ft 468 kts 222°
2026-04-17 18:31 -10.23823 -37.03240 30354 ft 470 kts 223°
2026-04-17 18:31 -10.26299 -37.05418 30593 ft 472 kts 222°
2026-04-17 18:31 -10.28794 -37.07607 30826 ft 475 kts 221°
2026-04-17 18:32 -10.31293 -37.09802 31053 ft 477 kts 222°
2026-04-17 18:32 -10.33810 -37.12007 31260 ft 479 kts 221°
2026-04-17 18:32 -10.36335 -37.14220 31545 ft 479 kts 222°
2026-04-17 18:32 -10.37313 -37.15079 31668 ft 479 kts 221°
2026-04-17 18:33 -10.38844 -37.16425 31422 ft 483 kts 221°
2026-04-17 18:34 -10.41356 -37.18635 31703 ft 475 kts 222°
2026-04-17 18:34 -10.43855 -37.20839 31823 ft 476 kts 221°
2026-04-17 18:34 -10.46323 -37.23017 31850 ft 463 kts 222°
2026-04-17 18:34 -10.48729 -37.25135 31854 ft 455 kts 221°
2026-04-17 18:35 -10.53469 -37.29305 31851 ft 454 kts 221°
2026-04-17 18:35 -10.58232 -37.33505 31847 ft 453 kts 221°
2026-04-17 18:36 -10.62996 -37.37712 31852 ft 453 kts 221°
2026-04-17 18:36 -10.67753 -37.41910 31850 ft 454 kts 221°
2026-04-17 18:37 -10.72528 -37.46118 31861 ft 454 kts 221°
2026-04-17 18:37 -10.73800 -37.47237 31861 ft 455 kts 221°
2026-04-17 18:41 -10.73858 -37.47287 31858 ft 454 kts 221°
2026-04-17 18:41 -10.76230 -37.49433 31635 ft 454 kts 221°
2026-04-17 18:41 -10.78602 -37.51541 31811 ft 453 kts 220°
2026-04-17 18:42 -10.83410 -37.55749 31866 ft 457 kts 220°
2026-04-17 18:42 -10.88221 -37.59967 31872 ft 456 kts 220°
2026-04-17 18:43 -10.92982 -37.64172 31884 ft 455 kts 220°
2026-04-17 18:43 -10.97756 -37.68400 31867 ft 455 kts 221°
2026-04-17 18:44 -11.02523 -37.72619 31869 ft 454 kts 220°
2026-04-17 18:44 -11.07287 -37.76834 31866 ft 453 kts 220°
2026-04-17 18:45 -11.12044 -37.81050 31862 ft 453 kts 220°
2026-04-17 18:45 -11.16801 -37.85267 31857 ft 453 kts 221°
2026-04-17 18:46 -11.21557 -37.89481 31861 ft 453 kts 220°
2026-04-17 18:46 -11.26317 -37.93698 31849 ft 453 kts 220°
2026-04-17 18:47 -11.31069 -37.97916 31860 ft 453 kts 220°
2026-04-17 18:47 -11.35816 -38.02136 31856 ft 453 kts 220°
2026-04-17 18:48 -11.40568 -38.06351 31862 ft 453 kts 220°
2026-04-17 18:48 -11.45313 -38.10563 31857 ft 452 kts 220°
2026-04-17 18:49 -11.50053 -38.14776 31860 ft 452 kts 220°
2026-04-17 18:49 -11.54794 -38.18998 31858 ft 452 kts 220°
2026-04-17 18:50 -11.59496 -38.23188 31857 ft 451 kts 220°
2026-04-17 18:50 -11.64235 -38.27404 31862 ft 451 kts 220°
2026-04-17 18:51 -11.68963 -38.31608 31861 ft 451 kts 220°
2026-04-17 18:51 -11.73694 -38.35816 31863 ft 451 kts 220°
2026-04-17 18:52 -11.78421 -38.40027 31865 ft 451 kts 220°
2026-04-17 18:52 -11.83138 -38.44235 31861 ft 450 kts 221°
2026-04-17 18:53 -11.87851 -38.48444 31858 ft 450 kts 221°
2026-04-17 18:53 -11.92555 -38.52649 31859 ft 449 kts 221°